CW1575 Weather Reports


Display with metric or nautical units.
time (UTC)temp
F
wind
direction
speed
MPH
gust
MPH
rain 1hr
in
rain 24hr
in
rain mn
in
humidity
%
barometer
mb
20140724191525 88 207 1.0 12.0 0.00 0.11 0.00 43 1020.7
20140724190525 92 195 2.0 14.0 0.00 0.11 0.00 35 1020.4
20140724185524 94 157 1.0 5.0 0.00 0.11 0.00 26 1019.7
20140724184524 96 96 0.0 3.0 0.00 0.11 0.00 25 1019.6
20140724183524 97 93 0.0 3.0 0.00 0.11 0.00 24 1019.6
20140724182525 98 86 0.0 3.0 0.00 0.11 0.00 24 1019.9
20140724181525 99 86 1.0 6.0 0.00 0.11 0.00 24 1020.0
20140724180524 98 110 2.0 8.0 0.00 0.11 0.00 24 1019.8
20140724175524 97 169 0.0 6.0 0.00 0.11 0.00 24 1019.6
20140724174525 96 155 1.0 5.0 0.00 0.11 0.00 26 1019.9
20140724173524 95 163 0.0 3.0 0.00 0.11 0.00 26 1019.8
20140724172525 94 163 3.0 6.0 0.00 0.11 0.00 27 1020.1
20140724171524 93 138 0.0 3.0 0.00 0.11 0.00 26 1020.0
20140724170524 92 138 1.0 5.0 0.00 0.11 0.00 28 1020.3
20140724165525 91 146 1.0 5.0 0.00 0.11 0.00 31 1020.4
20140724164524 89 170 0.0 5.0 0.00 0.11 0.00 33 1020.5
20140724163524 88 171 1.0 7.0 0.00 0.11 0.00 32 1020.6
20140724162524 86 163 0.0 2.0 0.00 0.11 0.00 37 1020.7
20140724161524 85 161 0.0 3.0 0.00 0.11 0.00 37 1020.6
20140724160524 84 163 0.0 5.0 0.00 0.11 0.00 39 1020.6
20140724155525 84 152 0.0 2.0 0.00 0.11 0.00 42 1020.7
20140724154524 84 152 0.0 5.0 0.00 0.11 0.00 43 1020.8
20140724153524 83 101 0.0 1.0 0.00 0.11 0.00 42 1021.0
20140724152525 82 101 0.0 1.0 0.00 0.11 0.00 42 1020.8
20140724151524 81 101 0.0 3.0 0.00 0.11 0.00 46 1021.0
20140724150524 79 101 1.0 3.0 0.00 0.11 0.00 48 1021.2
20140724145524 77 90 0.0 3.0 0.00 0.11 0.00 52 1021.3
20140724144524 75 90 0.0 3.0 0.00 0.11 0.00 55 1021.5
20140724143524 73 90 0.0 2.0 0.00 0.11 0.00 57 1021.6
20140724142523 71 90 0.0 3.0 0.00 0.11 0.00 59 1021.3
20140724141525 68 90 0.0 1.0 0.00 0.11 0.00 63 1021.2
20140724140524 66 90 0.0 0.0 0.00 0.11 0.00 70 1021.5
20140724135524 65 90 0.0 0.0 0.00 0.11 0.00 73 1021.3
20140724134524 64 90 0.0 0.0 0.00 0.11 0.00 77 1021.4
20140724133524 63 90 0.0 1.0 0.00 0.11 0.00 78 1021.5
20140724132524 62 90 0.0 2.0 0.00 0.11 0.00 78 1021.3
20140724131524 62 90 0.0 0.0 0.00 0.11 0.00 78 1021.3
20140724130524 61 90 0.0 0.0 0.00 0.11 0.00 77 1021.3
20140724125524 61 90 0.0 0.0 0.00 0.11 0.00 77 1021.2
20140724124525 61 90 0.0 0.0 0.00 0.11 0.00 76 1021.2
20140724123524 61 90 0.0 0.0 0.00 0.11 0.00 74 1021.1
20140724122524 61 90 0.0 0.0 0.00 0.11 0.00 74 1021.0
20140724121525 61 90 0.0 0.0 0.00 0.11 0.00 73 1021.1
20140724120524 61 90 0.0 0.0 0.00 0.11 0.00 73 1021.2
20140724115524 62 90 0.0 0.0 0.00 0.11 0.00 73 1021.3
20140724114524 62 90 0.0 0.0 0.00 0.11 0.00 72 1021.3
20140724113524 63 90 0.0 0.0 0.00 0.11 0.00 70 1021.4
20140724112524 63 90 0.0 0.0 0.00 0.11 0.00 68 1021.3
20140724111524 63 90 0.0 0.0 0.00 0.11 0.00 69 1021.5
20140724110524 64 90 0.0 0.0 0.00 0.11 0.00 68 1021.7
20140724105525 64 90 0.0 0.0 0.00 0.11 0.00 67 1021.7
20140724104525 64 90 0.0 0.0 0.00 0.11 0.00 65 1021.6
20140724103524 65 90 0.0 0.0 0.00 0.11 0.00 63 1021.7
20140724102523 65 90 0.0 0.0 0.00 0.11 0.00 61 1021.5
20140724101524 65 90 0.0 1.0 0.00 0.11 0.00 61 1021.4
20140724100524 65 90 0.0 1.0 0.00 0.11 0.00 60 1021.3
20140724095524 66 90 0.0 1.0 0.00 0.11 0.00 60 1021.6
20140724094524 66 90 0.0 1.0 0.00 0.11 0.00 61 1021.4
20140724093524 66 90 0.0 0.0 0.00 0.11 0.00 61 1021.4
20140724092524 67 90 0.0 0.0 0.00 0.11 0.00 60 1021.5
20140724091523 67 90 0.0 1.0 0.00 0.11 0.00 60 1021.5
20140724090524 67 90 0.0 2.0 0.00 0.11 0.00 61 1021.7
20140724085524 67 90 0.0 1.0 0.00 0.11 0.00 61 1021.8
20140724084524 68 90 0.0 0.0 0.00 0.11 0.00 59 1021.8
20140724083524 68 90 0.0 0.0 0.00 0.11 0.00 57 1021.9
20140724082524 69 90 0.0 0.0 0.00 0.11 0.00 56 1022.0
20140724081524 69 90 0.0 0.0 0.00 0.11 0.00 56 1022.1
20140724080523 69 90 0.0 0.0 0.00 0.11 0.00 55 1022.1
20140724075524 69 90 0.0 0.0 0.00 0.11 0.00 54 1022.2
20140724074524 70 90 0.0 0.0 0.00 0.11 0.00 54 1022.4
20140724073523 70 90 0.0 0.0 0.00 0.11 0.00 53 1022.5
20140724072524 70 90 0.0 1.0 0.00 0.11 0.00 53 1022.6
20140724071523 70 90 0.0 0.0 0.00 0.11 0.00 52 1022.3
20140724070524 71 90 0.0 2.0 0.00 0.11 0.00 49 1022.4
20140724065523 71 90 0.0 0.0 0.00 0.11 0.00 51 1022.6
20140724064524 71 90 0.0 0.0 0.00 0.11 0.00 50 1022.7
20140724063523 72 90 0.0 0.0 0.00 0.11 0.00 48 1022.6
20140724062524 72 90 0.0 0.0 0.00 0.11 0.00 47 1022.5
20140724061513 73 90 0.0 1.0 0.00 0.11 0.00 45 1022.6
20140724060524 73 90 0.0 3.0 0.00 0.11 0.00 44 1022.6
20140724055524 73 90 0.0 7.0 0.00 0.11 0.11 44 1022.8
20140724054524 73 125 2.0 3.0 0.00 0.11 0.11 44 1022.9
20140724053524 74 192 0.0 0.0 0.00 0.11 0.11 46 1022.9
20140724052524 74 192 0.0 2.0 0.00 0.11 0.11 44 1022.9
20140724051524 75 192 0.0 0.0 0.00 0.11 0.11 42 1023.1
20140724050523 75 192 0.0 1.0 0.00 0.11 0.11 42 1023.2
20140724045523 75 192 0.0 10.0 0.00 0.11 0.11 40 1023.3
20140724044524 74 192 0.0 10.0 0.00 0.11 0.11 40 1023.2
20140724043524 73 184 3.0 9.0 0.00 0.11 0.11 42 1023.4
20140724042523 73 167 3.0 14.0 0.00 0.11 0.11 41 1023.5
20140724041524 73 181 1.0 3.0 0.00 0.11 0.11 47 1023.5
20140724040524 73 173 2.0 7.0 0.00 0.11 0.11 51 1023.8
20140724035524 74 170 0.0 3.0 0.00 0.11 0.11 50 1024.0
20140724034523 74 170 0.0 9.0 0.00 0.11 0.11 50 1024.3
20140724033523 74 169 1.0 12.0 0.00 0.11 0.11 49 1024.3
20140724032523 75 180 1.0 6.0 0.00 0.11 0.11 48 1024.4
20140724031524 75 119 0.0 2.0 0.00 0.11 0.11 46 1024.5
20140724030525 75 119 1.0 5.0 0.00 0.11 0.11 43 1024.2
20140724025524 76 207 0.0 3.0 0.00 0.11 0.11 43 1024.1
20140724024524 76 207 0.0 2.0 0.00 0.11 0.11 43 1024.1
20140724023524 76 207 0.0 5.0 0.00 0.11 0.11 42 1023.9
20140724022523 76 209 0.0 2.0 0.00 0.11 0.11 41 1024.0
20140724021524 76 210 0.0 5.0 0.00 0.11 0.11 42 1024.5
20140724020525 77 219 0.0 8.0 0.00 0.11 0.11 41 1024.4
20140724015524 77 215 2.0 7.0 0.00 0.11 0.11 41 1024.6
20140724014524 77 217 6.0 13.0 0.00 0.11 0.11 41 1024.9
20140724013523 77 211 3.0 10.0 0.00 0.11 0.11 42 1025.1
20140724012524 77 225 1.0 12.0 0.00 0.11 0.11 42 1025.1
20140724011524 78 223 2.0 8.0 0.00 0.11 0.11 42 1025.3
20140724010524 78 195 3.0 13.0 0.00 0.11 0.11 42 1025.3
20140724005525 78 197 5.0 15.0 0.00 0.11 0.11 39 1025.2
20140724004525 77 215 6.0 15.0 0.00 0.11 0.11 39 1025.3
20140724003524 78 162 7.0 20.0 0.00 0.11 0.11 39 1025.7
20140724002523 78 186 6.0 13.0 0.00 0.11 0.11 39 1026.1
20140724001524 78 150 3.0 29.0 0.00 0.11 0.11 37 1026.2
20140724000524 78 185 6.0 17.0 0.00 0.11 0.11 38 1026.2
20140723235523 78 167 1.0 8.0 0.00 0.11 0.11 40 1026.4
20140723234523 78 168 1.0 14.0 0.00 0.11 0.11 40 1026.3
20140723233523 78 209 2.0 8.0 0.00 0.11 0.11 44 1026.4
20140723232523 78 163 2.0 8.0 0.00 0.11 0.11 44 1026.2
20140723231524 77 183 2.0 6.0 0.00 0.11 0.11 49 1026.7
20140723230524 77 166 1.0 13.0 0.00 0.11 0.11 50 1026.4
20140723225524 75 187 6.0 13.0 0.01 0.11 0.11 53 1026.9
20140723224523 73 212 2.0 10.0 0.04 0.11 0.11 60 1026.7
20140723223524 72 198 2.0 6.0 0.06 0.11 0.11 67 1026.8
20140723222524 72 208 2.0 6.0 0.11 0.11 0.11 68 1026.4
20140723221524 71 215 2.0 6.0 0.11 0.11 0.11 74 1026.6
20140723220523 72 108 1.0 7.0 0.11 0.11 0.11 67 1026.5
20140723215524 72 71 2.0 15.0 0.10 0.10 0.10 56 1026.0
20140723214523 75 260 9.0 20.0 0.07 0.07 0.07 55 1028.2
20140723213523 78 325 10.0 32.0 0.05 0.05 0.05 44 1027.6
20140723212524 80 300 7.0 20.0 0.00 0.00 0.00 38 1026.3
20140723211524 79 286 6.0 12.0 0.00 0.00 0.00 35 1025.8
20140723210524 78 278 2.0 18.0 0.00 0.00 0.00 37 1025.8
20140723205523 79 304 2.0 10.0 0.00 0.00 0.00 57 1027.3
20140723204523 80 311 2.0 10.0 0.00 0.00 0.00 55 1026.8
20140723203524 81 315 1.0 8.0 0.00 0.00 0.00 53 1026.9
20140723202523 83 317 1.0 8.0 0.00 0.00 0.00 51 1027.1
20140723201523 85 323 1.0 3.0 0.00 0.00 0.00 49 1027.2
20140723200524 86 324 1.0 3.0 0.00 0.00 0.00 47 1027.0
20140723195523 87 324 0.0 6.0 0.00 0.00 0.00 45 1026.6
20140723194523 87 324 1.0 3.0 0.00 0.00 0.00 50 1027.0
20140723193523 85 324 0.0 8.0 0.00 0.00 0.00 50 1027.2